DW2987 Weather Reports


time (UTC)temp
C
wind
direction
speed
KPH
gust
KPH
rain 1hr
cm
rain 24hr
cm
rain mn
cm
humidity
%
barometer
mb
20260507040033 -17 0.0 0.0 0.00 0.05 0.00 1008.4
20260507034528 -17 0.0 0.0 0.00 0.05 0.00 1008.4
20260507033027 -17 0.0 0.0 0.00 0.05 0.00 1008.2
20260507031525 -17 0.0 0.0 0.00 0.05 0.00 1008.1
20260507030015 -17 0.0 0.0 0.00 0.05 0.00 1008.2
20260507024512 -17 0.0 0.0 0.00 0.05 0.00 1008.3
20260507023005 -17 0.0 0.0 0.00 0.05 0.00 1008.3
20260507021501 -17 0.0 0.0 0.00 0.05 0.00 1008.2
20260507020109 -17 0.0 0.0 0.00 0.05 0.00 1008.3
20260507014604 -17 0.0 0.0 0.00 0.05 0.00 1008.1
20260507013051 -17 0.0 0.0 0.00 0.05 0.00 1008.1
20260507011544 -17 0.0 0.0 0.00 0.05 0.00 1008.0
20260507010040 -17 0.0 0.0 0.00 0.05 0.00 1008.1
20260507004540 -17 0.0 0.0 0.00 0.05 0.00 1008.0
20260507003032 -17 0.0 0.0 0.00 0.05 0.00 1007.8
20260507001527 -17 0.0 0.0 0.00 0.05 0.00 1007.7
20260507000026 -17 0.0 0.0 0.00 0.05 0.00 1007.5
20260506234530 -17 0.0 0.0 0.00 0.05 0.00 1007.6
20260506233014 -17 0.0 0.0 0.00 0.05 0.00 1007.4
20260506231519 -17 0.0 0.0 0.00 0.05 0.00 1007.3
20260506230004 -17 0.0 0.0 0.00 0.05 0.00 1007.3
20260506224600 -17 0.0 0.0 0.00 0.05 0.00 1007.3
20260506223058 -17 0.0 0.0 0.00 0.05 0.00 1007.3
20260506221551 -17 0.0 0.0 0.00 0.05 0.00 1007.3
20260506220049 -17 0.0 0.0 0.00 0.05 0.00 1007.3
20260506214545 -17 0.0 0.0 0.00 0.05 0.05 1007.4
20260506213059 -17 0.0 0.0 0.00 0.05 0.05 1007.1
20260506211547 -17 0.0 0.0 0.00 0.05 0.05 1007.2
20260506210034 -17 0.0 0.0 0.00 0.05 0.05 1007.0
20260506204525 -17 0.0 0.0 0.00 0.05 0.05 1006.8
20260506203026 15 29 0.0 12.9 0.00 0.05 0.05 77 1006.7
20260506201531 15 28 0.0 12.9 0.00 0.05 0.05 78 1006.5
20260506200019 15 46 4.8 19.3 0.00 0.05 0.05 78 1006.2
20260506194525 15 35 6.4 19.3 0.00 0.05 0.05 81 1006.1
20260506193018 15 13 11.3 20.9 0.00 0.05 0.05 82 1005.7
20260506191518 15 12 3.2 24.1 0.00 0.05 0.05 82 1005.3
20260506190018 15 14 9.7 17.7 0.00 0.05 0.05 81 1005.0
20260506184517 15 11 6.4 19.3 0.00 0.10 0.05 81 1004.6
20260506183027 16 25 4.8 16.1 0.00 0.10 0.05 79 1004.5
20260506181515 16 19 8.0 17.7 0.00 0.10 0.05 78 1004.0
20260506180015 16 33 4.8 22.5 0.00 0.10 0.05 74 1003.7
20260506174514 17 36 1.6 20.9 0.00 0.13 0.05 68 1003.4
20260506173013 17 44 8.0 22.5 0.00 0.13 0.05 67 1003.0
20260506171518 18 57 11.3 29.0 0.00 0.13 0.05 64 1002.9
20260506170012 18 22 6.4 19.3 0.00 0.13 0.05 58 1002.7
20260506164512 19 25 4.8 16.1 0.00 0.20 0.05 58 1002.6
20260506163013 20 22 4.8 17.7 0.00 0.20 0.05 57 1002.6
20260506161511 20 31 8.0 19.3 0.00 0.20 0.05 56 1002.6
20260506160012 20 23 8.0 17.7 0.00 0.20 0.05 56 1002.6
20260506154510 21 26 9.7 19.3 0.00 0.23 0.05 58 1002.4
20260506153011 21 34 4.8 24.1 0.00 0.23 0.05 60 1002.4
20260506151507 21 13 9.7 17.7 0.00 0.23 0.05 58 1002.6
20260506150007 21 17 9.7 22.5 0.00 0.23 0.05 58 1002.7
20260506144506 21 360 8.0 19.3 0.00 0.23 0.05 58 1002.7
20260506143012 21 360 9.7 20.9 0.00 0.23 0.05 58 1002.7
20260506141507 22 360 1.6 8.0 0.00 0.23 0.05 54 1002.8
20260506140002 22 355 1.6 8.0 0.00 0.23 0.05 54 1002.8
20260506134559 21 360 0.0 9.7 0.00 0.23 0.05 56 1002.9
20260506133059 22 355 6.4 17.7 0.00 0.23 0.05 55 1003.0
20260506131556 20 355 1.6 9.7 0.00 0.23 0.05 58 1003.1
20260506130100 21 355 0.0 14.5 0.00 0.23 0.05 57 1003.2
20260506124553 21 355 4.8 12.9 0.00 0.23 0.05 58 1003.2
20260506123052 20 355 0.0 8.0 0.00 0.23 0.05 58 1003.2
20260506121553 20 355 0.0 9.7 0.03 0.23 0.05 60 1003.3
20260506120049 20 355 1.6 12.9 0.03 0.23 0.05 60 1003.4
20260506114551 20 355 0.0 8.0 0.03 0.23 0.05 61 1003.4
20260506113045 20 355 0.0 8.0 0.03 0.23 0.05 62 1003.6
20260506111540 18 355 0.0 8.0 0.00 0.20 0.03 64 1003.8
20260506110038 18 355 0.0 3.2 0.00 0.20 0.03 67 1004.1
20260506104538 18 355 0.0 6.4 0.00 0.20 0.03 71 1004.1
20260506103040 17 355 0.0 0.0 0.03 0.20 0.03 74 1004.1
20260506101527 16 355 0.0 1.6 0.03 0.20 0.03 75 1004.2
20260506100023 15 355 0.0 6.4 0.03 0.20 0.03 79 1004.4
20260506094520 15 355 0.0 9.7 0.03 0.20 0.03 82 1004.6
20260506093017 13 355 0.0 9.7 0.00 0.18 0.00 85 1004.9
20260506091515 13 355 3.2 14.5 0.00 0.18 0.00 89 1004.9
20260506090016 -17 0.0 0.0 0.00 0.18 0.00 1005.0
20260506084509 -17 0.0 0.0 0.00 0.18 0.00 1005.0
20260506083011 -17 0.0 0.0 0.00 0.18 0.00 1005.0
20260506081508 -17 0.0 0.0 0.00 0.18 0.00 1005.0
20260506073002 -17 0.0 0.0 0.00 0.18 0.00 1004.9
20260506071557 -17 0.0 0.0 0.00 0.18 0.00 1004.7
20260506061555 -17 0.0 0.0 0.00 0.18 0.00 1005.1
20260506044522 -17 0.0 0.0 0.00 0.18 0.00 1005.5
20260506043026 -17 0.0 0.0 0.00 0.18 0.00 1005.8
20260506041507 -17 0.0 0.0 0.00 0.18 0.00 1005.4